I4GOS-3 Weather Reports


Display with metric or nautical units.
time (UTC)temp
F
wind
direction
speed
MPH
gust
MPH
rain 1hr
in
rain 24hr
in
rain mn
in
humidity
%
barometer
mb
20260505001623 66 176 0.0 0.0 0.00 0.00 0.00 55 1015.3
20260505001108 66 149 7.0 0.0 0.00 0.00 0.00 55 1015.4
20260505000608 66 179 1.0 0.0 0.00 0.00 0.00 55 1015.5
20260505000108 66 172 0.0 0.0 0.00 0.00 0.00 55 1015.6
20260504235607 66 185 4.0 0.0 0.00 0.00 0.00 55 1015.6
20260504235107 66 185 0.0 0.0 0.00 0.00 0.00 56 1015.6
20260504234607 66 162 0.0 0.0 0.00 0.00 0.00 56 1015.7
20260504234107 65 181 0.0 0.0 0.00 0.00 0.00 57 1015.8
20260504233606 65 181 0.0 0.0 0.00 0.00 0.00 57 1015.7
20260504233106 65 159 0.0 0.0 0.00 0.00 0.00 57 1015.9
20260504232606 65 147 0.0 0.0 0.00 0.00 0.00 57 1015.9
20260504232106 65 196 0.0 0.0 0.00 0.00 0.00 57 1016.0
20260504231605 65 196 0.0 0.0 0.00 0.00 0.00 57 1016.0
20260504231105 65 196 0.0 0.0 0.00 0.00 0.00 57 1016.1
20260504230605 65 198 0.0 0.0 0.00 0.00 0.00 57 1016.1
20260504230105 65 198 0.0 0.0 0.00 0.00 0.00 56 1016.2
20260504225604 65 198 0.0 0.0 0.00 0.00 0.00 56 1016.3
20260504225103 65 198 0.0 0.0 0.00 0.00 0.00 56 1016.3
20260504224603 65 198 0.0 0.0 0.00 0.00 0.00 56 1016.4
20260504224103 65 198 0.0 0.0 0.00 0.00 0.00 56 1016.3
20260504223603 65 199 0.0 0.0 0.00 0.00 0.00 56 1016.4
20260504223102 65 200 0.0 0.0 0.00 0.00 0.00 56 1016.5
20260504222602 65 166 0.0 0.0 0.00 0.00 0.00 56 1016.5
20260504222102 65 164 0.0 0.0 0.00 0.00 0.00 56 1016.5
20260504221602 65 179 0.0 0.0 0.00 0.00 0.00 56 1016.4
20260504221101 65 177 0.0 0.0 0.00 0.00 0.00 56 1016.5
20260504220601 65 184 0.0 0.0 0.00 0.00 0.00 56 1016.6
20260504220101 65 187 0.0 0.0 0.00 0.00 0.00 56 1016.6
20260504215601 65 182 5.0 0.0 0.00 0.00 0.00 56 1016.5
20260504215101 65 178 0.0 0.0 0.00 0.00 0.00 55 1016.5
20260504214600 65 185 0.0 0.0 0.00 0.00 0.00 55 1016.5
20260504214100 65 185 0.0 0.0 0.00 0.00 0.00 55 1016.6
20260504213631 66 180 0.0 0.0 0.00 0.00 0.00 55 1016.6
20260504213600 66 180 0.0 0.0 0.00 0.00 0.00 55 1016.6
20260504213100 66 183 0.0 0.0 0.00 0.00 0.00 54 1016.6
20260504212559 66 188 0.0 0.0 0.00 0.00 0.00 54 1016.6
20260504212059 66 220 8.0 0.0 0.00 0.00 0.00 55 1016.7
20260504211559 66 216 0.0 0.0 0.00 0.00 0.00 55 1016.7
20260504211059 66 213 0.0 0.0 0.00 0.00 0.00 56 1016.7
20260504210058 66 199 0.0 0.0 0.00 0.00 0.00 55 1016.6
20260504205558 66 181 0.0 0.0 0.00 0.00 0.00 54 1016.6
20260504205058 66 183 0.0 0.0 0.00 0.00 0.00 53 1016.5
20260504204558 67 176 0.0 0.0 0.00 0.00 0.00 53 1016.6
20260504204057 67 172 0.0 0.0 0.00 0.00 0.00 53 1016.6
20260504203557 67 197 0.0 0.0 0.00 0.00 0.00 52 1016.5
20260504203055 67 222 0.0 0.0 0.00 0.00 0.00 51 1016.5
20260504202549 68 173 0.0 0.0 0.00 0.00 0.00 50 1016.5
20260504202049 68 173 0.0 0.0 0.00 0.00 0.00 50 1016.6
20260504201549 68 173 0.0 0.0 0.00 0.00 0.00 49 1016.5
20260504201046 69 186 0.0 0.0 0.00 0.00 0.00 49 1016.4
20260504200546 69 156 0.0 0.0 0.00 0.00 0.00 49 1016.3
20260504200124 69 155 0.0 0.0 0.00 0.00 0.00 48 1016.3
20260504200045 69 155 0.0 0.0 0.00 0.00 0.00 48 1016.3
20260504195545 69 143 0.0 0.0 0.00 0.00 0.00 48 1016.3
20260504195045 69 138 1.0 0.0 0.00 0.00 0.00 47 1016.2
20260504194545 70 129 3.0 0.0 0.00 0.00 0.00 46 1016.1
20260504194044 70 137 4.0 0.0 0.00 0.00 0.00 45 1016.0
20260504193544 70 146 5.0 0.0 0.00 0.00 0.00 45 1016.0
20260504193044 70 141 2.0 0.0 0.00 0.00 0.00 44 1016.0
20260504192544 70 145 6.0 0.0 0.00 0.00 0.00 44 1016.0
20260504192044 70 156 0.0 0.0 0.00 0.00 0.00 44 1016.0
20260504191543 70 147 0.0 0.0 0.00 0.00 0.00 43 1015.9
20260504191043 70 177 2.0 0.0 0.00 0.00 0.00 43 1015.9
20260504190543 70 144 1.0 0.0 0.00 0.00 0.00 43 1015.8
20260504190043 70 152 0.0 0.0 0.00 0.00 0.00 43 1015.8
20260504185542 70 156 0.0 0.0 0.00 0.00 0.00 44 1015.7
20260504185042 70 150 0.0 0.0 0.00 0.00 0.00 44 1015.7
20260504184542 71 143 0.0 0.0 0.00 0.00 0.00 46 1015.7
20260504184042 71 136 0.0 0.0 0.00 0.00 0.00 46 1015.6
20260504183541 71 133 5.0 0.0 0.00 0.00 0.00 46 1015.6
20260504183041 71 130 2.0 0.0 0.00 0.00 0.00 47 1015.6
20260504182041 71 127 5.0 0.0 0.00 0.00 0.00 48 1015.6
20260504181541 71 121 5.0 0.0 0.00 0.00 0.00 48 1015.6
20260504181040 71 122 1.0 0.0 0.00 0.00 0.00 49 1015.6
20260504180540 71 124 0.0 0.0 0.00 0.00 0.00 49 1015.6
20260504180040 71 120 0.0 0.0 0.00 0.00 0.00 51 1015.6
20260504175710 71 119 2.0 0.0 0.00 0.00 0.00 50 1015.5
20260504175637 71 119 2.0 0.0 0.00 0.00 0.00 50 1015.5
20260504175540 71 119 2.0 0.0 0.00 0.00 0.00 50 1015.5
20260504175039 71 114 0.0 0.0 0.00 0.00 0.00 51 1015.5
20260504174539 71 106 0.0 0.0 0.00 0.00 0.00 50 1015.5
20260504174039 71 111 3.0 0.0 0.00 0.00 0.00 50 1015.6
20260504173539 72 100 1.0 0.0 0.00 0.00 0.00 50 1015.6
20260504173038 72 82 0.0 0.0 0.00 0.00 0.00 51 1015.5
20260504172538 72 83 0.0 0.0 0.00 0.00 0.00 51 1015.5
20260504172124 72 84 3.0 0.0 0.00 0.00 0.00 51 1015.5
20260504172038 72 84 3.0 0.0 0.00 0.00 0.00 51 1015.5
20260504171638 72 83 0.0 0.0 0.00 0.00 0.00 52 1015.6
20260504171538 72 83 0.0 0.0 0.00 0.00 0.00 52 1015.6
20260504171037 71 83 2.0 0.0 0.00 0.00 0.00 52 1015.5
20260504170537 71 89 0.0 0.0 0.00 0.00 0.00 52 1015.6
20260504160108 71 85 8.0 0.0 0.00 0.00 0.00 47 1015.8
20260504151022 71 56 12.0 0.0 0.00 0.00 0.00 59 1016.1
20260504150522 71 62 2.0 0.0 0.00 0.00 0.00 60 1016.1
20260504141008 71 66 12.0 0.0 0.00 0.00 0.00 61 1016.4
20260504140508 71 44 10.0 0.0 0.00 0.00 0.00 61 1016.4
20260504140125 71 28 11.0 0.0 0.00 0.00 0.00 61 1016.5
20260504120200 71 26 9.0 0.0 0.00 0.00 0.00 50 1017.6
20260504120149 72 73 2.0 0.0 0.00 0.00 0.00 48 1017.6
20260504110453 71 51 8.0 0.0 0.00 0.00 0.00 41 1017.7
20260504100530 72 301 0.0 0.0 0.00 0.00 0.00 49 1017.9
20260504100440 72 301 0.0 0.0 0.00 0.00 0.00 49 1017.9
20260504081935 71 10 0.0 0.0 0.00 0.00 0.00 54 1018.0
20260504081435 70 4 0.0 0.0 0.00 0.00 0.00 54 1018.0
20260504080934 70 28 0.0 0.0 0.00 0.00 0.00 54 1018.1
20260504080520 71 29 0.0 0.0 0.00 0.00 0.00 54 1018.0
20260504080434 71 29 0.0 0.0 0.00 0.00 0.00 54 1018.0
20260504050423 57 161 0.0 0.0 0.00 0.00 0.00 73 1017.2
20260504045923 56 162 0.0 0.0 0.00 0.00 0.00 74 1017.1
20260504045422 56 162 0.0 0.0 0.00 0.00 0.00 74 1017.1
20260504044922 56 161 0.0 0.0 0.00 0.00 0.00 74 1017.1
20260504044422 55 161 0.0 0.0 0.00 0.00 0.00 74 1017.1
20260504043921 55 120 0.0 0.0 0.00 0.00 0.00 74 1017.0
20260504043421 55 120 0.0 0.0 0.00 0.00 0.00 75 1017.1
20260504042920 55 120 0.0 0.0 0.00 0.00 0.00 75 1017.1
20260504042420 55 120 0.0 0.0 0.00 0.00 0.00 75 1017.1
20260504041920 56 120 0.0 0.0 0.00 0.00 0.00 75 1017.1
20260504041419 56 120 0.0 0.0 0.00 0.00 0.00 75 1017.0
20260504040919 56 120 0.0 0.0 0.00 0.00 0.00 74 1017.0
20260504040419 56 120 0.0 0.0 0.00 0.00 0.00 74 1017.0
20260504035914 56 120 0.0 0.0 0.00 0.00 0.00 74 1017.0
20260504035449 56 120 0.0 0.0 0.00 0.00 0.00 74 1017.0
20260504035407 56 120 0.0 0.0 0.00 0.00 0.00 74 1017.0
20260504034907 56 120 0.0 0.0 0.00 0.00 0.00 74 1016.9
20260504034407 56 120 0.0 0.0 0.00 0.00 0.00 74 1016.9
20260504033907 56 120 0.0 0.0 0.00 0.00 0.00 73 1016.9
20260504033407 57 120 0.0 0.0 0.00 0.00 0.00 73 1016.8
20260504032406 57 120 0.0 0.0 0.00 0.00 0.00 73 1016.8
20260504031906 57 120 0.0 0.0 0.00 0.00 0.00 73 1016.8
20260504031406 57 119 0.0 0.0 0.00 0.00 0.00 73 1016.8
20260504030902 57 120 0.0 0.0 0.00 0.00 0.00 72 1016.8
20260504030402 57 120 0.0 0.0 0.00 0.00 0.00 72 1016.8
20260504025902 58 120 0.0 0.0 0.00 0.00 0.00 72 1016.8
20260504025402 58 120 0.0 0.0 0.00 0.00 0.00 72 1016.8
20260504024902 58 120 0.0 0.0 0.00 0.00 0.00 72 1016.9
20260504024401 58 120 0.0 0.0 0.00 0.00 0.00 71 1017.0
20260504023901 58 120 0.0 0.0 0.00 0.00 0.00 71 1017.1
20260504023401 58 120 0.0 0.0 0.00 0.00 0.00 71 1017.1
20260504022901 58 120 0.0 0.0 0.00 0.00 0.00 71 1017.0
20260504022400 58 120 0.0 0.0 0.00 0.00 0.00 71 1017.1
20260504021900 58 120 0.0 0.0 0.00 0.00 0.00 71 1017.1
20260504021400 58 120 0.0 0.0 0.00 0.00 0.00 72 1017.1
20260504020900 58 145 0.0 0.0 0.00 0.00 0.00 72 1017.1
20260504020359 58 145 0.0 0.0 0.00 0.00 0.00 72 1017.1
20260504015859 59 145 0.0 0.0 0.00 0.00 0.00 72 1017.1
20260504015359 59 152 0.0 0.0 0.00 0.00 0.00 72 1017.1
20260504014859 59 152 0.0 0.0 0.00 0.00 0.00 72 1017.0
20260504014358 59 152 0.0 0.0 0.00 0.00 0.00 71 1017.0
20260504013858 59 152 0.0 0.0 0.00 0.00 0.00 71 1017.0
20260504013358 59 152 0.0 0.0 0.00 0.00 0.00 71 1017.0
20260504012858 59 152 0.0 0.0 0.00 0.00 0.00 71 1017.0
20260504012358 59 152 0.0 0.0 0.00 0.00 0.00 71 1017.0
20260504011857 59 186 0.0 0.0 0.00 0.00 0.00 71 1017.0
20260504011357 59 197 0.0 0.0 0.00 0.00 0.00 71 1017.0
20260504010857 59 197 0.0 0.0 0.00 0.00 0.00 71 1017.0
20260504010357 59 197 0.0 0.0 0.00 0.00 0.00 71 1017.0
20260504005856 60 197 0.0 0.0 0.00 0.00 0.00 71 1017.0
20260504005356 60 197 0.0 0.0 0.00 0.00 0.00 71 1017.0
20260504004356 60 197 0.0 0.0 0.00 0.00 0.00 71 1017.0
20260504003856 60 197 0.0 0.0 0.00 0.00 0.00 71 1017.0
20260504003355 60 197 0.0 0.0 0.00 0.00 0.00 71 1017.1
20260504002855 60 197 0.0 0.0 0.00 0.00 0.00 71 1017.0
20260504002355 60 197 0.0 0.0 0.00 0.00 0.00 70 1017.1